Weather History for Pampa, TX

Change the Weather History Date:

Monday, January 27, 2014

  Actual Average Record
Temperature  
Mean Temperature 18 °F -  
Max Temperature 28 °F 49 °F 72 °F (1969)
Min Temperature 7 °F 23 °F 6 °F (1972)
Degree Days  
Heating Degree Days 48    
Moisture  
Dew Point -7 °F    
Average Humidity 35    
Maximum Humidity 55    
Minimum Humidity 25    
Precipitation  
Precipitation 0.00 in - - ()
Sea Level Pressure  
Sea Level Pressure 30.25 in    
Wind  
Wind Speed 17 mph (ENE)    
Max Wind Speed 31 mph    
Max Gust Speed 43 mph    
Visibility 10 miles    
Events      
Averages and records for this station are not official NWS values.
T = Trace of Precipitation, MM = Missing Value Source: NWS Daily Summary

Daily Weather History Graph

Daily Weather History Graph

Search for Another Location

Airport:

Trip Planner

Search our weather history database for the weather conditions in past years. The results will help you decide how hot, cold, wet, or windy it might be!

Date:

Astronomy

Jan. 27, 2014 Rise Set
Actual Time 7:47 AM CST 6:06 PM CST
Civil Twilight 7:20 AM CST 6:33 PM CST
Nautical Twilight 6:49 AM CST 7:04 PM CST
Astronomical Twilight 6:19 AM CST 7:34 PM CST
Moon 4:29 AM CST 2:56 PM CST
Length of Visible Light 11h 13m
Length of Day
10h 19m
Waning Crescent, 14% of the Moon is Illuminated
Jan 27
Waning Crescent
Jan 30
New
Feb 6
First Quarter
Feb 14
Full
Feb 22
Last Quarter

Hourly Weather History & Observations

Time (CST) Temp. Windchill Dew Point Humidity Pressure Visibility Wind Dir Wind Speed Gust Speed Precip Events Conditions
12:15 AM 28.0 °F 12.0 °F 13.6 °F 55% 30.09 in 10.0 mi NE 31.1 mph 42.6 mph N/A   Clear
12:35 AM 27.5 °F 11.8 °F 11.8 °F 52% 30.10 in 10.0 mi NE 28.8 mph 40.3 mph N/A   Clear
12:55 AM 27.0 °F 11.9 °F 10.2 °F 49% 30.12 in 10.0 mi NE 25.3 mph 34.5 mph N/A   Clear
1:15 AM 26.1 °F 12.3 °F 9.5 °F 50% 30.12 in 10.0 mi NE 19.6 mph 28.8 mph N/A   Clear
1:35 AM 25.3 °F 11.4 °F 7.9 °F 48% 30.14 in 10.0 mi NNE 19.6 mph 28.8 mph N/A   Clear
1:55 AM 24.6 °F 8.5 °F 5.5 °F 44% 30.15 in 10.0 mi NNE 26.5 mph 32.2 mph N/A   Clear
2:15 AM 23.9 °F 9.1 °F 4.8 °F 44% 30.16 in 10.0 mi NNE 20.7 mph 28.8 mph N/A   Clear
2:35 AM 23.0 °F 10.1 °F 6.1 °F 48% 30.17 in 10.0 mi NNE 15.0 mph 20.7 mph N/A   Clear
2:55 AM 22.8 °F 8.9 °F 3.7 °F 44% 30.19 in 10.0 mi NNE 17.3 mph 25.3 mph N/A   Clear
3:15 AM 22.1 °F 7.6 °F 3.2 °F 44% 30.19 in 10.0 mi NE 18.4 mph 24.2 mph N/A   Clear
3:35 AM 22.1 °F 6.4 °F 2.1 °F 42% 30.20 in 10.0 mi NE 21.9 mph 27.6 mph N/A   Clear
3:55 AM 21.2 °F 5.2 °F -1.7 °F 37% 30.21 in 10.0 mi NE 21.9 mph 25.3 mph N/A   Clear
4:15 AM 20.3 °F 2.6 °F -3.6 °F 35% 30.21 in 10.0 mi NNE 26.5 mph 33.4 mph N/A   Clear
4:35 AM 19.4 °F 1.8 °F -8.0 °F 30% 30.21 in 10.0 mi NNE 25.3 mph 34.5 mph N/A   Clear
4:55 AM 18.5 °F 1.6 °F -9.8 °F 28% 30.23 in 10.0 mi NNE 21.9 mph 26.5 mph N/A   Clear
5:15 AM 17.8 °F 1.9 °F -10.5 °F 28% 30.23 in 10.0 mi NNE 18.4 mph - N/A   Clear
5:35 AM 17.2 °F 2.2 °F -11.2 °F 28% 30.24 in 10.0 mi NNE 16.1 mph 24.2 mph N/A   Clear
5:55 AM 16.7 °F 2.0 °F -11.2 °F 28% 30.24 in 10.0 mi NNE 15.0 mph 20.7 mph N/A   Clear
6:15 AM 16.2 °F 2.5 °F -10.5 °F 30% 30.25 in 10.0 mi NNE 12.7 mph - N/A   Clear
6:35 AM 15.8 °F 2.7 °F -9.8 °F 32% 30.25 in 10.0 mi NNE 11.5 mph - N/A   Clear
6:55 AM 15.4 °F 2.3 °F -9.4 °F 33% 30.26 in 10.0 mi NNE 11.5 mph - N/A   Scattered Clouds
7:15 AM 15.1 °F 2.5 °F -9.0 °F 34% 30.27 in 10.0 mi NNE 10.4 mph - N/A   Clear
7:35 AM 15.3 °F 0.2 °F -9.4 °F 33% 30.27 in 10.0 mi NNE 15.0 mph - N/A   Clear
7:55 AM 15.1 °F 1.1 °F -9.2 °F 33% 30.28 in 10.0 mi NNE 12.7 mph - N/A   Clear
8:15 AM 15.3 °F 2.0 °F -8.9 °F 34% 30.28 in 10.0 mi NE 11.5 mph - N/A   Clear
8:35 AM 15.3 °F 4.4 °F -8.5 °F 34% 30.28 in 10.0 mi NE 8.1 mph - N/A   Clear
8:55 AM 15.6 °F 4.9 °F -7.8 °F 35% 30.30 in 10.0 mi NE 8.1 mph - N/A   Clear
9:15 AM 15.8 °F 3.4 °F -9.8 °F 32% 30.31 in 10.0 mi NE 10.4 mph 16.1 mph N/A   Clear
9:35 AM 17.1 °F 5.0 °F -9.6 °F 30% 30.32 in 10.0 mi NE 10.4 mph - N/A   Scattered Clouds
9:55 AM 18.1 °F 5.6 °F -8.7 °F 30% 30.32 in 10.0 mi NE 11.5 mph - N/A   Mostly Cloudy
10:15 AM 18.5 °F 6.1 °F -8.0 °F 31% 30.32 in 10.0 mi ENE 11.5 mph 16.1 mph N/A   Scattered Clouds
10:35 AM 18.7 °F 7.8 °F -7.6 °F 31% 30.33 in 10.0 mi NE 9.2 mph - N/A   Clear
10:55 AM 19.2 °F 6.4 °F -7.6 °F 30% 30.33 in 10.0 mi ENE 12.7 mph 17.3 mph N/A   Clear
11:15 AM 19.9 °F 7.9 °F -6.2 °F 31% 30.32 in 10.0 mi NE 11.5 mph - N/A   Clear
11:35 AM 21.0 °F 11.4 °F -6.3 °F 30% 30.33 in 10.0 mi ENE 8.1 mph - N/A   Clear
11:55 AM 22.1 °F 11.3 °F -5.6 °F 30% 30.32 in 10.0 mi ENE 10.4 mph - N/A   Scattered Clouds
12:15 PM 21.9 °F 13.4 °F -6.2 °F 29% 30.32 in 10.0 mi ENE 6.9 mph 16.1 mph N/A   Mostly Cloudy
12:35 PM 21.2 °F 12.6 °F -6.9 °F 29% 30.31 in 10.0 mi ENE 6.9 mph - N/A   Overcast
12:55 PM 20.8 °F 9.7 °F -7.8 °F 28% 30.30 in 10.0 mi ENE 10.4 mph - N/A   Overcast
1:15 PM 20.3 °F 9.0 °F -7.8 °F 29% 30.30 in 10.0 mi NE 10.4 mph - N/A   Overcast
1:35 PM 20.3 °F 11.5 °F -8.0 °F 28% 30.28 in 10.0 mi ENE 6.9 mph - N/A   Overcast
1:55 PM 20.5 °F 10.0 °F -8.0 °F 28% 30.27 in 10.0 mi ENE 9.2 mph - N/A   Overcast
2:15 PM 20.7 °F 13.0 °F -8.9 °F 27% 30.26 in 10.0 mi ENE 5.8 mph - N/A   Overcast
2:35 PM 20.7 °F 11.0 °F -9.4 °F 26% 30.25 in 10.0 mi ENE 8.1 mph - N/A   Overcast
2:55 PM 20.3 °F 11.5 °F -9.6 °F 26% 30.24 in 10.0 mi East 6.9 mph - N/A   Overcast
3:15 PM 20.1 °F 10.3 °F -9.6 °F 27% 30.24 in 10.0 mi NE 8.1 mph - N/A   Overcast
3:35 PM 20.5 °F 10.0 °F -9.8 °F 26% 30.23 in 10.0 mi NE 9.2 mph - N/A   Overcast
3:55 PM 19.6 °F 9.7 °F -10.7 °F 26% 30.23 in 10.0 mi ENE 8.1 mph - N/A   Overcast
4:15 PM 20.1 °F 8.1 °F -10.5 °F 25% 30.22 in 10.0 mi ENE 11.5 mph - N/A   Overcast
4:35 PM 19.2 °F 7.7 °F -10.8 °F 26% 30.22 in 10.0 mi ENE 10.4 mph - N/A   Overcast
4:55 PM 19.4 °F 7.9 °F -10.7 °F 26% 30.22 in 10.0 mi East 10.4 mph - N/A   Overcast
5:15 PM 18.9 °F 8.0 °F -10.3 °F 27% 30.22 in 10.0 mi East 9.2 mph - N/A   Overcast
5:35 PM 18.5 °F 7.5 °F -10.5 °F 27% 30.22 in 10.0 mi East 9.2 mph - N/A   Overcast
5:55 PM 18.5 °F 7.5 °F -10.5 °F 27% 30.22 in 10.0 mi ESE 9.2 mph - N/A   Overcast
6:15 PM 17.6 °F 6.4 °F -10.5 °F 28% 30.22 in 10.0 mi East 9.2 mph - N/A   Overcast
6:35 PM 16.7 °F 5.3 °F -10.7 °F 29% 30.23 in 10.0 mi East 9.2 mph - N/A   Overcast
6:55 PM 15.3 °F 3.5 °F -10.5 °F 31% 30.23 in 10.0 mi East 9.2 mph - N/A   Mostly Cloudy
7:15 PM 13.8 °F 2.7 °F -11.0 °F 32% 30.23 in 10.0 mi East 8.1 mph - N/A   Scattered Clouds
7:35 PM 11.5 °F 0.9 °F -11.2 °F 36% 30.24 in 10.0 mi East 6.9 mph - N/A   Clear
7:55 PM 10.4 °F 2.2 °F -11.2 °F 37% 30.25 in 10.0 mi ENE 4.6 mph - N/A   Clear
8:15 PM 9.5 °F -2.6 °F -11.0 °F 39% 30.25 in 10.0 mi ENE 8.1 mph - N/A   Clear
8:35 PM 8.6 °F -3.7 °F -10.3 °F 42% 30.25 in 10.0 mi East 8.1 mph - N/A   Clear
8:55 PM 8.8 °F -3.5 °F -9.8 °F 43% 30.26 in 10.0 mi East 8.1 mph - N/A   Clear
9:15 PM 9.3 °F -2.8 °F -9.4 °F 43% 30.27 in 10.0 mi East 8.1 mph - N/A   Clear
9:35 PM 10.0 °F -1.9 °F -9.6 °F 41% 30.27 in 10.0 mi East 8.1 mph - N/A   Clear
9:55 PM 9.3 °F -2.8 °F -9.4 °F 43% 30.28 in 10.0 mi East 8.1 mph - N/A   Clear
10:15 PM 9.1 °F -4.0 °F -9.4 °F 43% 30.28 in 10.0 mi East 9.2 mph - N/A   Clear
10:35 PM 9.1 °F -3.0 °F -9.4 °F 43% 30.27 in 10.0 mi East 8.1 mph - N/A   Clear
10:55 PM 7.7 °F -5.8 °F -9.6 °F 45% 30.28 in 10.0 mi East 9.2 mph - N/A   Clear
11:15 PM 7.5 °F -6.0 °F -9.6 °F 46% 30.28 in 10.0 mi East 9.2 mph - N/A   Clear
11:35 PM 7.7 °F -4.8 °F -9.4 °F 46% 30.28 in 10.0 mi East 8.1 mph - N/A   Clear
11:55 PM 7.3 °F -5.2 °F -9.4 °F 46% 30.29 in 10.0 mi East 8.1 mph - N/A   Clear